FENGYUN 1C DEB, 30252

Orbit data source: Space-Track

FENGYUN 1C DEB, 30252 is space debris in SSO originally from a launch on Mon, 10 May 1999 UTC launched from the Taiyaun Space Center, China (TSC). Fengyun 1C debris stems from the Chinese weather satellite Fengyun-1C, which was intentionally destroyed by a Chinese anti-satellite missile in 2007. This event dramatically increased the amount of space debris, with thousands of trackable fragments posing hazards to satellites and human spaceflight. The Fengyun 1C debris cloud has become a focal point in discussions about space sustainability and the need for international regulations to prevent the creation of new debris.

Loading next visibility...
Identifier
30252, 1999-025XM
Orbit
SSO
Country
Flag of CNCN / PRC
Related business
Manufacturer
Unknown
Mission
Spacecraft
Bus & Motor
Unknown
Mass
Unknown
Launch date (UTC)
1999-05-10 (27 years ago)
Launch vehicle
Unknown
Launch site
Taiyaun Space Center, China (TSC)
Object type
Payload
Rocket body
Debris
Shape & HBR
Unknown shape, 0.1 m
Radar Cross Section
Medium (>0.1 m² and <1 m²)

Expand to show TLE details & history
Last TLE update: 11 hours ago

TLE from 11 hours ago
0 FENGYUN 1C DEB
1 30252U 99025XM  26166.29679696  .00000485  00000-0  29264-3 0  9995
2 30252  98.7329 181.0416 0067997  79.9181 346.1367 14.10005396995660
Epoch: 2026-06-15T07:07Z
TLE epoch observation values (Epoch: 2026-06-15T07:07:23.257Z)
Latitude
64.51428°
Longitude
151.91354°
Altitude
822.669 km
Speed
7.472 km/s
True Right ascension
10h 49m 22s
True Declination
64° 22' 54"
Sunlit
Object was in daylight at epoch
Visualization orbit readout
Latitude
Unknown
Longitude
Unknown
Altitude
Unknown
Speed
Unknown
Apparent Right ascension
Unknown
Apparent Declination
Unknown
Sunlit
N/A
Visualization observer readout
Local Sidereal Time
05:10:00
Azimuth
Unknown
Elevation
Unknown
Doppler factor
Unknown
Orbital elements
Apogee altitude
905.72 km
Perigee altitude
807.333 km
Semi-major axis
7,234.663 km
Eccentricity
0.0068
Inclination
98.7329°
RAAN
181.0416°
Arg. of periapsis
79.9181°
True anomaly
345.94845°
Mean anomaly
346.1367°
Eccentric anomaly
346.04273°
Mean motion
3.52708 °/min
Orbital period
102.07 mins
BSTAR
0.00029264
Loading maneuver chart data...
Computing Atmospheric mass density...
Loading historical data...
Loading historical data...
Loading historical data...
Loading historical data...
Loading historical data...
Loading historical data...
Loading historical data...

Documentation

Showing up to 5 results
|